Stations météo

Publicité
Agen, France (7524): Température de l'air & dewpoint: 01.07.2020 14:00:00 - 07.07.2020 14:00:00 (CEST)Agen, France (7524): Température de l'air 5cm: 01.07.2020 14:00:00 - 07.07.2020 14:00:00 (CEST)Agen, France (7524): Température de l'air -20cm & Température de l'air -100cm: 01.07.2020 14:00:00 - 07.07.2020 14:00:00 (CEST)Agen, France (7524): Vitesse du vent & gusts: 01.07.2020 14:00:00 - 07.07.2020 14:00:00 (CEST)Agen, France (7524): Direction du vent: 01.07.2020 14:00:00 - 07.07.2020 14:00:00 (CEST)Agen, France (7524): reduced air pressure: 01.07.2020 14:00:00 - 07.07.2020 14:00:00 (CEST)Agen, France (7524): visibility: 01.07.2020 14:00:00 - 07.07.2020 14:00:00 (CEST)Agen, France (7524): Ensoleillement: 01.07.2020 14:00:00 - 07.07.2020 14:00:00 (CEST)Agen, France (7524): Quantités de précipitations: 01.07.2020 14:00:00 - 07.07.2020 14:00:00 (CEST)
Date & Time tt [°C] td [°C] tt 5cm [°C] tt -20cm [°C] tt -100cm [°C] ff [km/h] ff [knt] fx [km/h] fx [knt] dd ppp [hPa] vv [km] sd [min] rr [mm]
07.07.2020 14:00:00 24,0 9,2 40,9 20,7 19,0 11 6 30 16 N 1020,2 20 60 0,0
07.07.2020 13:00:00 23,8 8,2 39,4 20,7 19,1 15 8 32 17 N 1020,6 47 60 0,0
07.07.2020 12:00:00 23,1 10,2 38,4 20,7 19,1 8 4 35 19 W 1020,9 41 60 0,0
07.07.2020 11:00:00 21,1 12,2 32,9 20,7 19,1 6 3 16 9 NNW 1021,2 32 60 0,0
07.07.2020 10:00:00 19,0 12,7 23,2 20,8 19,1 5 3 14 7 W 1021,5 37 60 0,0
07.07.2020 09:00:00 16,4 13,7 14,3 20,9 19,1 5 3 12 7 WNW 1021,6 20 60 0,0
07.07.2020 08:00:00 14,4 13,1 8,6 21,0 19,1 4 2 9 5 WNW 1021,8 16 60 0,0
07.07.2020 07:00:00 12,0 10,7 7,0 21,1 19,1 5 3 8 5 W 1021,7 20 13 0,0
07.07.2020 06:00:00 11,5 9,9 7,5 21,3 19,1 4 2 7 4 W 1021,5 20 0 0,0
07.07.2020 05:00:00 12,1 10,0 6,9 21,4 19,1 5 3 8 4 W 1021,6 23 0 0,0
07.07.2020 04:00:00 13,4 10,6 7,5 21,5 19,1 5 3 11 6 W 1021,8 26 0 0,0
07.07.2020 03:00:00 15,5 11,7 11,1 21,6 19,1 9 5 13 7 WSW 1022,2 25 0 0,0
07.07.2020 02:00:00 16,2 11,6 11,4 21,6 19,1 8 5 16 8 W 1022,4 29 0 0,0
07.07.2020 01:00:00 16,2 10,9 11,7 21,7 19,0 9 5 15 8 WNW 1022,5 32 0 0,0
07.07.2020 00:00:00 17,7 11,5 11,1 21,8 19,0 10 5 13 7 W 1022,5 37 0 0,0
06.07.2020 23:00:00 18,9 10,2 12,0 21,8 19,0 8 4 10 6 W 1022,5 45 0 0,0
06.07.2020 22:00:00 19,6 10,3 13,3 21,9 19,0 7 4 17 9 NW 1021,8 2,0 16 0,0
06.07.2020 21:00:00 22,7 10,8 20,5 21,8 19,1 13 7 26 14 NW 1021,5 12 60 0,0
06.07.2020 20:00:00 24,3 11,6 24,7 21,7 19,0 19 11 30 16 WNW 1021,3 39 60 0,0
06.07.2020 19:00:00 24,8 11,4 29,3 21,7 19,0 20 11 32 17 WNW 1021,4 20 60 0,0
06.07.2020 18:00:00 25,0 11,2 34,2 21,6 19,0 21 11 36 20 WNW 1021,7 37 60 0,0
06.07.2020 17:00:00 25,2 12,4 39,2 21,4 19,0 18 10 38 20 NW 1021,9 43 60 0,0
06.07.2020 16:00:00 24,5 11,8 34,8 21,4 19,0 18 10 40 22 WNW 1022,0 55 55 0,0
06.07.2020 15:00:00 23,8 14,5 36,6 21,3 19,0 16 8 41 22 WNW 1022,2 39 50 0,0
06.07.2020 14:00:00 22,4 15,3 29,7 21,3 19,0 17 9 29 16 WNW 1022,7 54 26 0,0
06.07.2020 13:00:00 20,8 16,0 24,2 21,3 19,0 14 8 29 15 NW 1022,9 20 5 0,0
06.07.2020 12:00:00 19,6 16,4 22,8 21,3 19,0 14 8 29 16 NW 1023,0 60 7 0,0
06.07.2020 11:00:00 19,0 16,6 21,5 21,3 19,0 17 9 31 17 NW 1022,6 36 15 0,0
06.07.2020 10:00:00 19,9 17,9 21,3 21,3 19,0 12 7 21 12 WNW 1022,4 53 20 0,0
06.07.2020 09:00:00 18,8 17,5 19,1 21,4 19,0 10 5 18 10 NW 1022,4 49 3 0,0
06.07.2020 08:00:00 17,8 16,5 17,7 21,4 19,0 10 5 18 10 NW 1022,2 9 0 0,2
06.07.2020 07:00:00 17,7 15,9 17,1 21,5 19,0 10 5 26 14 NW 1022,0 2,6 0 0,2
06.07.2020 06:00:00 18,6 16,4 17,4 21,6 19,0 12 7 24 13 NW 1021,7 56 0 0,0
06.07.2020 05:00:00 18,9 17,2 18,2 21,6 19,0 18 10 28 15 NW 1021,4 16 0 0,0
06.07.2020 04:00:00 19,4 17,4 18,7 21,7 19,0 12 6 25 14 NW 1021,6 20 0 0,0
06.07.2020 03:00:00 19,6 17,7 17,1 21,7 19,0 6 3 19 10 WNW 1021,7 31 0 0,0
06.07.2020 02:00:00 19,8 17,6 17,5 21,7 19,0 13 7 19 11 WNW 1021,8 31 0 0,0
06.07.2020 01:00:00 20,4 17,8 17,4 21,8 19,0 11 6 17 9 WNW 1021,8 32 0 0,0
06.07.2020 00:00:00 21,5 17,9 18,0 21,8 19,0 10 6 13 7 WNW 1021,4 32 0 0,0
05.07.2020 23:00:00 22,8 17,5 18,2 21,8 19,0 9 5 15 8 WNW 1021,1 28 0 0,0
05.07.2020 22:00:00 23,8 17,3 18,7 21,7 19,0 7 4 18 10 NNW 1020,2 5 6 0,0
05.07.2020 21:00:00 26,4 18,0 24,0 21,7 19,0 12 6 24 13 NNW 1019,8 35 60 0,0
05.07.2020 20:00:00 27,8 17,6 28,1 21,6 19,0 16 9 27 15 N 1019,7 35 60 0,0
05.07.2020 19:00:00 28,4 17,3 33,1 21,4 19,0 17 9 29 16 NNW 1019,8 37 60 0,0
05.07.2020 18:00:00 28,7 16,9 38,8 21,2 19,0 16 9 28 15 NNW 1020,4 30 60 0,0
05.07.2020 17:00:00 28,2 16,1 43,7 21,0 19,0 9 5 28 15 NW 1020,8 19 60 0,0
05.07.2020 16:00:00 27,7 16,6 46,6 20,8 19,0 12 6 25 13 NW 1021,1 56 60 0,0
05.07.2020 15:00:00 26,7 16,0 45,8 20,7 19,0 13 7 27 15 NNW 1021,5 60 60 0,0
05.07.2020 14:00:00 26,1 15,5 46,3 20,6 19,0 12 6 22 12 NNW 1022,4 20 60 0,0
05.07.2020 13:00:00 25,3 13,5 42,8 20,5 19,0 10 5 22 12 N 1022,8 19 60 0,0
05.07.2020 12:00:00 23,7 13,6 39,7 20,5 19,0 9 5 18 10 WNW 1023,0 20 60 0,0
05.07.2020 11:00:00 22,4 14,3 35,0 20,5 19,0 9 5 17 9 NNW 1023,4 28 60 0,0
05.07.2020 10:00:00 20,9 15,0 27,2 20,5 19,0 5 3 11 6 NNW 1023,7 37 60 0,0
05.07.2020 09:00:00 19,2 14,7 17,3 20,6 19,0 4 2 9 5 W 1023,8 19 60 0,0
05.07.2020 08:00:00 18,3 15,9 11,9 20,7 19,0 0 0 4 2 N 1023,7 40 60 0,0
05.07.2020 07:00:00 14,5 12,5 10,3 20,8 19,0 3 2 6 4 WNW 1023,7 26 15 0,0
05.07.2020 06:00:00 14,6 12,5 10,3 20,8 19,0 4 2 6 3 W 1023,5 14 0 0,0
05.07.2020 05:00:00 14,7 12,2 10,4 20,9 19,0 4 2 5 3 NW 1023,5 38 0 0,0
05.07.2020 04:00:00 15,7 12,4 10,9 21,0 19,0 0 0 9 5 N 1023,7 39 0 0,0
05.07.2020 03:00:00 16,7 12,6 11,9 21,1 19,0 5 3 9 5 W 1024,0 44 0 0,0
05.07.2020 02:00:00 18,0 12,9 13,1 21,1 19,0 6 3 10 5 W 1024,4 46 0 0,0
05.07.2020 01:00:00 19,0 13,2 14,1 21,2 19,0 7 4 11 6 W 1024,4 45 0 0,0
05.07.2020 00:00:00 19,8 13,5 14,5 21,2 19,0 8 4 11 6 W 1024,3 43 0 0,0
04.07.2020 23:00:00 20,4 13,6 14,8 21,2 19,1 9 5 14 7 WNW 1024,2 47 0 0,0
04.07.2020 22:00:00 22,2 13,5 16,1 21,2 19,0 4 2 11 6 W 1023,5 1,6 1 0,0
04.07.2020 21:00:00 24,1 13,0 21,4 21,1 19,0 9 5 20 11 NNW 1023,1 53 60 0,0
04.07.2020 20:00:00 25,1 13,6 25,7 21,0 19,0 13 7 25 14 NNW 1022,8 48 60 0,0
04.07.2020 19:00:00 25,2 12,8 31,0 20,8 19,0 9 5 23 12 NW 1022,7 33 58 0,0
04.07.2020 18:00:00 25,2 13,1 35,2 20,7 19,1 14 8 27 15 NNW 1023,2 21 60 0,0
04.07.2020 17:00:00 24,8 12,7 40,7 20,5 19,0 16 9 30 16 NNW 1023,5 24 60 0,0
04.07.2020 16:00:00 24,8 13,4 35,4 20,4 19,1 13 7 25 14 NW 1023,7 32 50 0,0
04.07.2020 15:00:00 23,2 13,1 37,7 20,2 19,0 16 9 35 19 NNW 1024,2 41 52 0,0
04.07.2020 14:00:00 22,7 12,3 32,2 20,1 19,1 14 8 27 14 NW 1024,6 35 53 0,0
04.07.2020 13:00:00 21,8 12,1 41,0 20,1 19,0 10 5 26 14 NW 1025,1 52 60 0,0
04.07.2020 12:00:00 21,2 11,8 34,9 20,1 19,0 8 4 23 13 NW 1025,1 39 57 0,0
04.07.2020 11:00:00 19,9 12,4 32,1 20,1 19,1 8 5 18 10 W 1025,3 52 58 0,0
04.07.2020 10:00:00 18,1 13,2 23,1 20,2 19,1 6 3 14 7 NW 1025,1 39 60 0,0
04.07.2020 09:00:00 16,4 14,2 15,1 20,2 19,1 7 4 11 6 WNW 1024,9 50 60 0,0
04.07.2020 08:00:00 14,4 13,1 8,3 20,4 19,1 3 2 7 4 NW 1024,6 13 60 0,0
04.07.2020 07:00:00 11,2 9,9 7,0 20,5 19,1 5 3 6 4 WNW 1024,5 58 15 0,0
04.07.2020 06:00:00 11,7 10,1 7,2 20,6 19,1 5 3 8 4 WNW 1024,1 27 0 0,0
04.07.2020 05:00:00 11,6 9,5 7,2 20,7 19,1 4 2 9 5 W 1024,0 31 0 0,0
04.07.2020 04:00:00 13,7 11,4 7,2 20,8 19,1 6 4 9 5 W 1024,3 38 0 0,0
04.07.2020 03:00:00 14,1 11,3 8,3 20,9 19,1 6 3 8 5 W 1024,7 37 0 0,0
04.07.2020 02:00:00 14,6 11,6 8,4 20,9 19,1 3 2 8 5 WNW 1024,9 38 0 0,0
04.07.2020 01:00:00 14,9 11,7 9,4 21,0 19,0 6 3 8 4 W 1024,9 38 0 0,0
04.07.2020 00:00:00 15,8 11,6 9,9 21,0 19,1 3 2 10 5 W 1024,7 46 0 0,0
03.07.2020 23:00:00 17,5 11,7 11,6 21,1 19,1 6 4 11 6 W 1023,9 38 0 0,0
03.07.2020 22:00:00 18,8 11,6 14,5 21,1 19,1 9 5 21 12 W 1023,2 6 16 0,0
03.07.2020 21:00:00 21,5 11,2 20,7 21,0 19,0 12 7 22 12 NW 1022,9 55 51 0,0
03.07.2020 20:00:00 21,4 10,8 20,9 21,0 19,1 14 8 28 15 NW 1022,6 42 44 0,0
03.07.2020 19:00:00 23,3 10,4 25,0 20,9 19,0 20 11 30 16 W 1022,4 57 30 0,0
03.07.2020 18:00:00 21,8 11,5 26,0 20,8 19,1 15 8 31 17 NNW 1022,7 60 10 0,0
03.07.2020 17:00:00 23,6 10,3 26,6 20,7 19,1 11 6 27 15 NW 1022,4 20 26 0,0
03.07.2020 16:00:00 23,5 9,5 34,4 20,6 19,1 13 7 33 18 WNW 1022,7 32 51 0,0
03.07.2020 15:00:00 22,2 10,3 29,5 20,5 19,0 11 6 32 17 W 1023,1 41 17 0,0
03.07.2020 14:00:00 22,4 11,2 34,1 20,4 19,1 13 7 28 15 WNW 1023,4 52 56 0,0
03.07.2020 13:00:00 21,1 10,9 28,2 20,4 19,1 16 8 24 13 W 1023,7 34 36 0,0
03.07.2020 12:00:00 20,3 12,8 23,8 20,4 19,0 7 4 21 11 WNW 1023,9 60 27 0,0
03.07.2020 11:00:00 19,5 12,7 28,8 20,4 19,0 9 5 19 11 WNW 1023,7 51 45 0,0
03.07.2020 10:00:00 18,2 13,7 23,3 20,4 19,0 7 4 16 9 NNW 1023,6 39 60 0,0
03.07.2020 09:00:00 16,5 13,8 15,6 20,5 19,1 8 5 14 8 WNW 1023,6 37 41 0,0
03.07.2020 08:00:00 15,0 13,2 10,2 20,6 19,1 4 2 5 3 WNW 1023,5 19 35 0,0
03.07.2020 07:00:00 13,4 11,6 7,9 20,7 19,0 5 3 9 5 WSW 1023,2 28 13 0,0
03.07.2020 06:00:00 13,3 11,2 8,5 20,8 19,0 6 3 9 5 SW 1022,8 11 0 0,0
03.07.2020 05:00:00 14,0 11,7 9,5 20,9 19,1 5 3 9 5 W 1022,6 35 0 0,0
03.07.2020 04:00:00 14,1 11,6 9,5 21,0 19,1 5 3 12 6 W 1022,8 37 0 0,0
03.07.2020 03:00:00 14,2 11,5 10,4 21,0 19,0 9 5 12 6 WNW 1022,9 39 0 0,0
03.07.2020 02:00:00 15,1 11,9 11,6 21,1 19,1 8 5 15 8 WNW 1022,6 39 0 0,0
03.07.2020 01:00:00 16,4 12,0 13,5 21,2 19,0 11 6 21 12 WNW 1022,2 43 0 0,0
03.07.2020 00:00:00 17,9 12,6 15,5 21,3 19,0 12 7 19 10 W 1021,8 47 0 0,0
02.07.2020 23:00:00 18,4 13,0 15,8 21,3 19,0 10 5 20 11 W 1021,3 45 0 0,0
02.07.2020 22:00:00 19,2 12,5 16,5 21,3 19,0 11 6 24 13 W 1020,6 10 5 0,0
02.07.2020 21:00:00 20,4 12,9 19,4 21,3 19,0 13 7 21 11 W 1020,2 52 0 0,0
02.07.2020 20:00:00 20,6 13,1 20,2 21,3 19,0 13 7 24 13 NW 1019,8 50 0 0,0
02.07.2020 19:00:00 21,3 13,2 23,3 21,3 19,0 17 9 30 16 NW 1019,4 40 2 0,0
02.07.2020 18:00:00 22,3 13,6 25,8 21,2 19,0 19 10 34 18 WNW 1019,0 60 14 0,0
02.07.2020 17:00:00 22,2 13,5 25,1 21,2 19,0 18 10 32 18 WNW 1018,8 58 9 0,0
02.07.2020 16:00:00 22,2 13,8 24,7 21,2 19,0 19 11 31 17 WNW 1018,7 36 2 0,0
02.07.2020 15:00:00 22,4 14,0 28,8 21,2 19,0 16 8 31 17 NW 1018,5 33 0 0,0
02.07.2020 14:00:00 21,7 14,1 27,3 21,2 19,0 17 9 28 15 NW 1018,8 39 8 0,0
02.07.2020 13:00:00 19,3 15,4 20,4 21,2 19,0 7 4 25 13 N 1018,9 42 0 0,0
02.07.2020 12:00:00 19,4 14,4 20,7 21,2 19,0 16 9 26 14 WNW 1018,4 48 0 0,0
02.07.2020 11:00:00 19,7 14,9 20,7 21,2 19,0 14 8 21 11 WNW 1018,0 54 0 0,0
02.07.2020 10:00:00 19,7 15,3 23,3 21,2 19,0 10 5 18 10 WNW 1017,7 40 0 0,0
02.07.2020 09:00:00 19,3 16,5 18,8 21,3 19,0 6 3 10 6 W 1017,5 27 10 0,0
02.07.2020 08:00:00 18,5 15,6 17,9 21,3 19,0 5 3 9 5 NNW 1017,2 41 0 0,0
02.07.2020 07:00:00 18,3 15,5 17,4 21,4 19,0 2 1 7 4 NW 1016,8 18 0 0,0
02.07.2020 06:00:00 18,3 15,4 17,4 21,4 19,0 4 2 10 6 NW 1016,7 4,4 0 0,0
02.07.2020 05:00:00 18,5 15,4 17,5 21,5 19,0 6 4 13 7 NW 1016,6 43 0 0,0
02.07.2020 04:00:00 18,7 15,6 17,8 21,5 19,0 6 4 15 8 NW 1016,7 46 0 0,0
02.07.2020 03:00:00 19,3 15,8 18,2 21,6 19,0 11 6 24 13 NW 1016,7 50 0 0,0
02.07.2020 02:00:00 19,9 17,7 19,0 21,6 19,0 13 7 20 11 NW 1016,8 38 0 0,0
02.07.2020 01:00:00 20,2 17,4 19,0 21,6 19,0 11 6 16 9 WNW 1016,6 36 0 0,0
02.07.2020 00:00:00 20,7 17,3 19,6 21,6 19,0 10 5 17 9 W 1016,4 42 0 0,0
01.07.2020 23:00:00 21,2 18,0 19,9 21,6 19,0 9 5 16 8 W 1016,1 41 0 0,0
01.07.2020 22:00:00 21,4 18,4 20,3 21,6 19,0 8 4 19 10 WNW 1015,5 1,1 0 0,0
01.07.2020 21:00:00 21,9 18,7 21,4 21,6 19,0 12 6 20 11 W 1015,2 33 0 0,0
01.07.2020 20:00:00 22,1 18,7 22,3 21,6 19,0 11 6 22 12 W 1014,9 30 0 0,0
01.07.2020 19:00:00 22,7 18,9 25,3 21,5 18,9 12 7 21 12 W 1014,8 32 2 0,0
01.07.2020 18:00:00 22,5 18,7 26,5 21,5 18,9 12 6 28 15 W 1014,9 33 6 0,0
01.07.2020 17:00:00 23,1 18,8 28,4 21,4 18,9 18 10 26 14 NW 1014,9 37 6 0,0
01.07.2020 16:00:00 23,1 20,4 27,9 21,5 18,9 11 6 24 13 WNW 1014,5 28 19 0,0
01.07.2020 15:00:00 20,5 19,0 20,0 21,5 19,0 8 4 18 10 WSW 1014,4 20 1 1,7
01.07.2020 14:00:00 20,2 18,3 19,5 21,5 19,0 9 5 25 13 WSW 1013,4 14 0 1,2

tt = Température de l'air
td = dewpoint
tt 5cm = Température de l'air 5cm
tt -20cm = Température de l'air -20cm
tt -100cm = Température de l'air -100cm
ff = Vitesse du vent
fx = gusts
dd = Direction du vent
ppp = reduced air pressure
vv = visibility
sd = Ensoleillement
rr = Quantités de précipitations

stations d'obs. à proximité